This is the latest recevied weather packets stored in our database for station/object WA6OOO. If no packets are shown the sender has not sent any weather packets the latest 10 day(s).
| Time | Temp. | Humidity | Pressure | Rain* | Wind** | Luminosity | Snow |
|---|---|---|---|---|---|---|---|
| 1777172157 | 13.33° C | 81% | 1014.9 hPa | 0 mm | - | 0 W/m² | - |
| 1777171854 | 13.33° C | 82% | 1014.5 hPa | 0 mm | - | 0 W/m² | - |
| 1777171550 | 13.33° C | 82% | 1014.5 hPa | 0 mm | - | 1 W/m² | - |
| 1777171246 | 13.33° C | 82% | 1014.6 hPa | 0 mm | - | 1 W/m² | - |
| 1777170944 | 13.33° C | 81% | 1014.5 hPa | 0 mm | - | 2 W/m² | - |
| 1777170640 | 13.33° C | 79% | 1014.5 hPa | 0 mm | - | 2 W/m² | - |
| 1777170337 | 13.33° C | 79% | 1014.6 hPa | 0 mm | - | 2 W/m² | - |
| 1777170034 | 13.33° C | 80% | 1014.6 hPa | 0 mm | - | 3 W/m² | - |
| 1777169731 | 13.33° C | 80% | 1014.6 hPa | 0 mm | - | 5 W/m² | - |
| 1777169428 | 13.33° C | 80% | 1014.5 hPa | 0 mm | - | 11 W/m² | - |
| 1777169127 | 13.33° C | 82% | 1014.5 hPa | 0 mm | - | 15 W/m² | - |
| 1777168822 | 13.33° C | 82% | 1014.5 hPa | 0 mm | - | 11 W/m² | - |
| 1777168519 | 13.33° C | 82% | 1014.3 hPa | 0 mm | - | 14 W/m² | - |
| 1777168217 | 13.89° C | 82% | 1014.5 hPa | 0 mm | - | 12 W/m² | - |
| 1777167916 | 13.89° C | 82% | 1014.3 hPa | 0 mm | - | 18 W/m² | - |
| 1777167615 | 13.89° C | 82% | 1014.2 hPa | 0 mm | - | 20 W/m² | - |
| 1777167310 | 13.89° C | 82% | 1014.2 hPa | 0 mm | - | 28 W/m² | - |
| 1777167006 | 13.89° C | 82% | 1014.2 hPa | 0 mm | - | 35 W/m² | - |
| 1777166702 | 13.89° C | 81% | 1014.2 hPa | 0 mm | - | 43 W/m² | - |
| 1777166398 | 13.89° C | 81% | 1014.2 hPa | 0 mm | - | 48 W/m² | - |
| 1777166094 | 13.89° C | 81% | 1014.3 hPa | 0 mm | - | 67 W/m² | - |
| 1777165791 | 13.89° C | 80% | 1014.5 hPa | 0 mm | - | 78 W/m² | - |
| 1777165488 | 14.44° C | 80% | 1014.2 hPa | 0 mm | - | 82 W/m² | - |
| 1777165184 | 14.44° C | 78% | 1014.5 hPa | 0 mm | - | 92 W/m² | - |
| 1777164880 | 14.44° C | 78% | 1014.3 hPa | 0 mm | - | 101 W/m² | - |
* Rain latest hour (hover to see other rain measurements)
** Current wind speed in m/s (hover to see current wind gust speed)